Volver al catálogo

ARIANE 5 DEB

SYLDA

ActivoGTO
NORAD 26497·DEBRIS·🇫🇷 France

Lanzado Sep 14, 2000 desde Guiana Space Centre

Loading…

TLE

EnvejeciendoSource: Space-Track

Época: Sep 14, 2026, 18:35 UTC

1 26497U 00054D   26257.77465066  .00000260  00000-0  29104-2 0  9996
2 26497   6.8573 109.3730 7156630 139.2848 353.9901  2.28206970215751

Sigue ARIANE 5 DEB en tiempo real con AllMySat

Download on the App Store